Caribou, ME

6:32 AM EDT on June 28, 2017 (GMT -0400)
Caribou Municipal

Weather History for KCAR - March, 2014

Change the Weather History Date:

Friday, March 28, 2014

  Actual Average Record
Temperature  
Mean Temperature 26 °F 30 °F  
Max Temperature 35 °F 38 °F 64 °F (1993)
Min Temperature 16 °F 21 °F -7 °F (1974)
Degree Days  
Heating Degree Days 39 35  
Month to date heating degree days 1437 1150  
Since 1 July heating degree days 8091 7871  
Cooling Degree Days 0 0  
Month to date cooling degree days 0 0  
Year to date cooling degree days 0 0  
Moisture  
Dew Point 23 °F    
Average Humidity 75    
Maximum Humidity 100    
Minimum Humidity 50    
Precipitation  
Precipitation 0.20 in 0.08 in 0.71 in (1991)
Month to date precipitation 2.86 2.27  
Year to date precipitation 9.08 7.19  
Snow  
Snow 1.60 in 0.40 in 2.10 in (2005)
Month to date snowfall 37.6 17.0  
Since 1 July snowfall 137.0 99.5  
Snow Depth 32.00 in    
Sea Level Pressure  
Sea Level Pressure 29.94 in    
Wind  
Wind Speed 7 mph (SSE)    
Max Wind Speed 18 mph    
Max Gust Speed 23 mph    
Visibility 6 miles    
Events Fog , Snow    
T = Trace of Precipitation, MM = Missing Value Source: NWS Daily Summary

Daily Weather History Graph

Daily Weather History Graph

Search for Another Location

Airport or City:

Trip Planner

Search our weather history database for the weather conditions in past years. The results will help you decide how hot, cold, wet, or windy it might be!

Date:

Astronomy

Mar. 28, 2014 Rise Set
Actual Time 6:19 AM EDT 6:55 PM EDT
Civil Twilight 5:48 AM EDT 7:26 PM EDT
Nautical Twilight 5:12 AM EDT 8:02 PM EDT
Astronomical Twilight 4:34 AM EDT 8:40 PM EDT
Moon 4:56 AM EDT 4:41 PM EDT
Length of Visible Light 13h 37m
Length of Day
12h 36m
Waning Crescent, 6% of the Moon is Illuminated
Mar 28
Waning Crescent
Mar 30
New
Apr 7
First Quarter
Apr 15
Full
Apr 22
Last Quarter

Hourly Weather History & Observations

Time (EDT) Temp. Windchill Dew Point Humidity Pressure Visibility Wind Dir Wind Speed Gust Speed Precip Events Conditions
12:54 AM 16.0 °F - 1.0 °F 52% 30.17 in 10.0 mi Calm Calm - N/A   Mostly Cloudy
1:54 AM 19.0 °F 11.1 °F 5.0 °F 54% 30.17 in 10.0 mi SW 5.8 mph - N/A   Overcast
2:54 AM 19.9 °F - 7.0 °F 57% 30.17 in 10.0 mi Calm Calm - N/A   Overcast
3:54 AM 19.0 °F 11.1 °F 7.0 °F 59% 30.15 in 10.0 mi South 5.8 mph - N/A   Overcast
4:54 AM 19.9 °F 12.1 °F 8.1 °F 60% 30.15 in 10.0 mi South 5.8 mph - N/A   Overcast
5:54 AM 21.0 °F 13.4 °F 9.0 °F 60% 30.14 in 10.0 mi SE 5.8 mph - N/A   Overcast
6:54 AM 21.0 °F 16.2 °F 10.0 °F 63% 30.14 in 10.0 mi SSE 3.5 mph - N/A   Overcast
7:54 AM 23.0 °F 17.0 °F 10.0 °F 58% 30.12 in 10.0 mi SE 4.6 mph - N/A   Overcast
8:54 AM 24.1 °F 15.2 °F 9.0 °F 53% 30.08 in 10.0 mi SE 8.1 mph - N/A   Overcast
9:54 AM 27.0 °F 18.0 °F 12.9 °F 56% 30.07 in 10.0 mi SSE 9.2 mph - N/A   Overcast
10:29 AM 27.0 °F 19.5 °F 15.1 °F 61% 30.01 in 10.0 mi SE 6.9 mph - N/A   Overcast
10:54 AM 28.0 °F 21.7 °F 16.0 °F 61% 30.04 in 10.0 mi South 5.8 mph - N/A   Overcast
11:18 AM 30.0 °F 18.7 °F 19.0 °F 64% 29.97 in 6.0 mi SSE 16.1 mph - 0.00 in Snow Light Snow
11:22 AM 28.9 °F 17.3 °F 19.9 °F 69% 29.96 in 2.5 mi SSE 16.1 mph 20.7 mph 0.00 in Snow Light Snow
11:27 AM 28.9 °F 16.5 °F 21.0 °F 72% 29.96 in 1.2 mi SSE 18.4 mph 23.0 mph 0.00 in Snow Light Snow
11:40 AM 28.0 °F 17.5 °F 23.0 °F 81% 29.95 in 0.8 mi SSE 12.7 mph 21.9 mph 0.01 in Snow Light Snow
11:54 AM 28.9 °F 20.4 °F 25.0 °F 85% 29.99 in 0.5 mi South 9.2 mph 18.4 mph 0.02 in Fog , Snow Snow
12:04 PM 28.9 °F 21.1 °F 26.1 °F 89% 29.95 in 1.0 mi SSE 8.1 mph - 0.00 in Snow Light Snow
12:11 PM 28.9 °F 20.4 °F 26.1 °F 89% 29.94 in 1.8 mi SSE 9.2 mph - 0.01 in Snow Light Snow
12:17 PM 28.9 °F 21.1 °F 26.1 °F 89% 29.96 in 3.0 mi South 8.1 mph - 0.01 in Snow Light Snow
12:54 PM 30.9 °F 21.7 °F 26.1 °F 82% 29.96 in 9.0 mi SSE 11.5 mph - 0.01 in   Overcast
1:15 PM 30.9 °F 22.8 °F 27.0 °F 85% 29.92 in 1.8 mi South 9.2 mph 18.4 mph 0.00 in Snow Light Snow
1:22 PM 30.9 °F 21.7 °F 27.0 °F 85% 29.91 in 3.0 mi SSE 11.5 mph - 0.00 in Snow Light Snow
1:54 PM 32.0 °F 22.5 °F 27.0 °F 82% 29.93 in 6.0 mi SSE 12.7 mph - 0.00 in   Haze
2:54 PM 33.1 °F 24.4 °F 28.0 °F 82% 29.90 in 10.0 mi SSE 11.5 mph - N/A   Overcast
3:54 PM 33.1 °F 23.9 °F 28.0 °F 82% 29.87 in 10.0 mi SSE 12.7 mph - N/A   Overcast
4:21 PM 33.1 °F 25.5 °F 28.0 °F 82% 29.83 in 10.0 mi SSE 9.2 mph - N/A   Overcast
4:54 PM 33.1 °F 24.9 °F 28.9 °F 85% 29.87 in 2.0 mi South 10.4 mph - 0.00 in Snow Light Snow
4:59 PM 33.1 °F 26.1 °F 28.9 °F 85% 29.82 in 1.2 mi South 8.1 mph - 0.01 in Snow Light Snow
5:18 PM 33.1 °F 26.1 °F 30.0 °F 89% 29.82 in 1.5 mi South 8.1 mph - 0.02 in Snow Light Snow
5:24 PM 33.1 °F 26.1 °F 30.0 °F 89% 29.83 in 0.8 mi South 8.1 mph - 0.03 in Snow Light Snow
5:46 PM 33.1 °F 26.1 °F 30.0 °F 89% 29.83 in 0.5 mi South 8.1 mph - 0.06 in Fog , Snow Snow
5:54 PM 33.1 °F 26.9 °F 30.0 °F 89% 29.87 in 0.5 mi South 6.9 mph - 0.08 in Fog , Snow Snow
6:03 PM 33.1 °F 26.9 °F 30.9 °F 92% 29.83 in 0.5 mi South 6.9 mph - 0.01 in Fog , Snow Snow
6:54 PM 33.1 °F 25.5 °F 30.9 °F 92% 29.83 in 0.8 mi SSE 9.2 mph - 0.09 in Snow Light Snow
7:00 PM 33.1 °F 26.1 °F 30.9 °F 92% 29.79 in 1.5 mi SSE 8.1 mph - 0.00 in Snow Light Snow
7:10 PM 33.1 °F 26.9 °F 32.0 °F 96% 29.80 in 3.0 mi South 6.9 mph - 0.00 in   Overcast
7:29 PM 33.1 °F 26.9 °F 32.0 °F 96% 29.81 in 7.0 mi South 6.9 mph - 0.00 in   Overcast
7:39 PM 33.1 °F 26.1 °F 32.0 °F 96% 29.81 in 7.0 mi South 8.1 mph - 0.00 in   Overcast
7:49 PM 33.8 °F 27.7 °F 32.0 °F 93% 29.81 in 7.0 mi South 6.9 mph - 0.00 in   Overcast
7:54 PM 34.0 °F 26.6 °F 32.0 °F 92% 29.84 in 8.0 mi South 9.2 mph - 0.00 in   Overcast
8:21 PM 34.0 °F 28.0 °F 32.0 °F 92% 29.80 in 7.0 mi South 6.9 mph - N/A   Overcast
8:30 PM 34.0 °F 28.0 °F 32.0 °F 92% 29.80 in 7.0 mi South 6.9 mph - N/A   Overcast
8:41 PM 34.0 °F 27.2 °F 32.0 °F 92% 29.80 in 7.0 mi South 8.1 mph - N/A   Overcast
8:54 PM 34.0 °F 28.0 °F 32.0 °F 92% 29.83 in 7.0 mi South 6.9 mph - N/A   Overcast
9:54 PM 34.0 °F 28.0 °F 32.0 °F 92% 29.83 in 6.0 mi South 6.9 mph - N/A   Overcast
10:29 PM 34.0 °F 28.8 °F 33.1 °F 96% 29.80 in 6.0 mi South 5.8 mph - N/A   Overcast
10:54 PM 34.0 °F 29.8 °F 33.1 °F 96% 29.84 in 6.0 mi SSW 4.6 mph - N/A   Overcast
11:54 PM 34.0 °F 29.8 °F 33.1 °F 96% 29.86 in 5.0 mi SSW 4.6 mph - 0.00 in   Overcast